Regional Weather Roundup
Issued by NWS Newport/Morehead, NC

Current Version | Previous Version | Graphics & Text | Print | Product List | Glossary On
Versions: 1 2 3 4 5 6 7 8 9 10 11 12 13 14 15 16 17 18 19 20 21 22 23 24 25 26 27 28 29 30 31 32 33 34 35 36 37 38 39 40 41 42 43 44 45 46 47 48 49 50
000 ASUS42 KMHX 301225 RWRMHX WEATHER ROUNDUP FOR EASTERN NORTH CAROLINA NATIONAL WEATHER SERVICE NEWPORT/MOREHEAD CITY NC 800 AM EDT MON MAY 30 2016 NOTE: "FAIR" INDICATES FEW OR NO CLOUDS BELOW 12,000 FEET WITH NO SIGNIFICANT WEATHER AND/OR OBSTRUCTIONS TO VISIBILITY NCZ015>017-031-032-045>047-102-103-301300- NORTH COAST CITY SKY/WX TMP DP RH WIND PRES REMARKS EDENTON LGT RAIN N/A N/A N/A SE3 30.03R ELIZABETH CITY LGT RAIN 72 71 97 SE3 30.02S KITTY HAWK LGT RAIN 73 71 95 SE3 30.02S MANTEO NOT AVBL $$ NCZ045>047-081-094-103-104-301300- CENTRAL COAST CITY SKY/WX TMP DP RH WIND PRES REMARKS FRISCO HVY RAIN 73 71 93 CALM 30.03R FOG $$ NCZ095-097-098-100-101-301300- SOUTHERN COAST CITY SKY/WX TMP DP RH WIND PRES REMARKS BEAUFORT HVY RAIN 70 67 90 S5 30.01R FOG CEDAR ISLAND NOT AVBL JACKSONVILLE CLOUDY 75 71 87 E7 29.98R PINEY ISLAND LGT RAIN N/A N/A N/A CALM 30.01R WILMINGTON MOSUNNY 74 72 93 E3 29.97R $$ NCZ011>013-027>030-043-044-078>080-089-090>093-098-301300- COASTAL PLAIN CITY SKY/WX TMP DP RH WIND PRES REMARKS AHOSKIE DRIZZLE 72 71 97 CALM 30.02S CLINTON CLOUDY 74 73 98 CALM 29.98S ELIZABETHTOWN PTSUNNY 73 73 100 CALM 29.97R GOLDSBORO CLOUDY 74 74 100 E7 29.98S GREENVILLE PTSUNNY 73 73 100 SE3 30.03R HAVELOCK CLOUDY 72 70 93 SE7 30.01S KENANSVILLE CLOUDY 73 72 98 CALM 30.00R KINSTON RAIN 73 72 94 SE7 30.01R NEW BERN CLOUDY 73 70 90 SE5 30.01S RICHLANDS MOSUNNY 73 73 100 E7 29.99R ROCKY MOUNT CLOUDY 73 72 96 E3 30.01R WASHINGTON DRIZZLE 73 72 97 E3 30.01S WHITEVILLE PTSUNNY 73 71 92 E5 29.94R $$ AMZ130-135-150-152-154-156-158-170-250-252-270-ANZ085-086-088-633-658-670-301300- MARINE OBSERVATIONS STATION/POSITION TIME TEMP WIND PRES WAVE SWELL AIR SEA DIR/SP/G HT/PER HT/PER (UTC) (F) (DEG/KT/KT) (MB) (FT/S) (FT/S) CHESAPEAKE LIGHT 1200 71 190/ 10/ 11 1017.6 64 E VA BEACH 1150 67 62 170/ 8/ 10 1017.0 5/ 6 5/ 6 DUCK 1200 66 58 140/ 8/ 8 1016.2 2 E DUCK 1111 62 N/A 3/ 7 OREGON INLET 1200 71 77 150/ 6/ 8 1016.8 13E OREGON INLT 1200 66 N/A 5/ 6 5/ 6 HATTERAS CG 1200 72 76 CALM / 3 1016.2 DIAMOND BUOY 1150 77 80 150/ 21/ 25 1015.7 5/ 9 2/ 9 CAPE LOOKOUT 1200 71 250/ 4/ 6 1015.8 BEAUFORT LAB 1200 70 75 130/ 3/ 11 1015.3 30 SE NEW RVR IN 1125 75 N/A 6/ 7 27 SE WRIGHTSVLE 1208 77 75 200/ 8/ 10 1014.5 5 SE WRIGHTSVLE 1108 76 75 140/ 6/ 10 1015.0 225 S CAPE HAT 1150 74 76 110/ 8/ 12 1016.4 4/ 8 3/ 8 41 SE CHARLESTON 1150 75 77 220/ 17/ 19 1012.6 5/ 6 2/ 9 $$

USA.gov is the U.S. government's official web portal to all federal, state and local government web resources and services.